Terminal Aerodrome Forecast
Issued by NWS

Home | Current Version | Previous Version | Text Only | Print | Product List | Glossary On
Versions: 1 2 3 4 5 6 7 8 9 10 11 12 13 14 15 16 17
000
FTUS42 TJSJ 261100
TAFJMZ
TAF
TJMZ 261130Z 2612/2712 06006KT P6SM FEW025
     FM261500 07010KT P6SM SCT025 BKN040
     FM261730 27010KT P6SM VCTS BKN040CB
     FM262200 06006KT P6SM SCT025 SCT040
      AMD NOT SKED TIL 261600=

USA.gov is the U.S. government's official web portal to all federal, state and local government web resources and services.